Weather History for Cleveland, OH

Change the Weather History Date:

Thursday, November 29, 2012

  Actual Average Record
Temperature  
Mean Temperature 38 °F 38 °F  
Max Temperature 48 °F 45 °F 67 °F (1933)
Min Temperature 28 °F 32 °F 6 °F (1976)
Degree Days  
Heating Degree Days 27 27  
Month to date heating degree days 710 609  
Since 1 July heating degree days 1221 1069  
Cooling Degree Days 0 0  
Month to date cooling degree days 0 0  
Year to date cooling degree days 1096 816  
Moisture  
Dew Point 22 °F    
Average Humidity 56    
Maximum Humidity 78    
Minimum Humidity 34    
Precipitation  
Precipitation 0.00 in 0.12 in 0.80 in (2011)
Month to date precipitation 0.76 3.51  
Year to date precipitation 40.69 35.93  
Snow  
Snow 0.00 in 0.30 in - ()
Month to date snowfall 0.3 4.1  
Since 1 July snowfall 0.3 4.3  
Since 1 September snowfall 0.3 4.3  
Snow Depth 0.00 in    
Sea Level Pressure  
Sea Level Pressure 30.34 in    
Wind  
Wind Speed 8 mph (SSW)    
Max Wind Speed 18 mph    
Max Gust Speed 23 mph    
Visibility 10 miles    
Events      
T = Trace of Precipitation, MM = Missing Value Source: NWS Daily Summary

Daily Weather History Graph

Daily Weather History Graph

Search for Another Location

Airport:

Trip Planner

Search our weather history database for the weather conditions in past years. The results will help you decide how hot, cold, wet, or windy it might be!

Date:

Astronomy

Nov. 29, 2012 Rise Set
Actual Time 7:32 AM EST 4:59 PM EST
Civil Twilight 7:01 AM EST 5:29 PM EST
Nautical Twilight 6:27 AM EST 6:04 PM EST
Astronomical Twilight 5:54 AM EST 6:37 PM EST
Moon 6:00 PM EST (11/29) 8:18 AM EST (11/29)
Length of Visible Light 10h 28m
Length of Day
9h 26m
Full, 99% of the Moon is Illuminated
Nov 29
Full
Dec 6
Last Quarter
Dec 13
New
Dec 20
First Quarter
Dec 28
Full

Hourly Weather History & Observations

Time (EST) Temp. Windchill Dew Point Humidity Pressure Visibility Wind Dir Wind Speed Gust Speed Precip Events Conditions
12:51 AM 28.9 °F 21.9 °F 23.0 °F 78% 30.37 in 10.0 mi SW 6.9 mph - N/A   Partly Cloudy
1:51 AM 28.4 °F 22.2 °F 23.0 °F 80% 30.35 in 10.0 mi SW 5.8 mph - N/A   Clear
2:51 AM 28.4 °F 21.2 °F 23.0 °F 80% 30.35 in 10.0 mi SSW 6.9 mph - N/A   Clear
3:51 AM 28.9 °F 22.8 °F 21.9 °F 75% 30.38 in 10.0 mi SSW 5.8 mph - N/A   Scattered Clouds
4:51 AM 28.9 °F 22.8 °F 23.0 °F 78% 30.38 in 10.0 mi SSW 5.8 mph - N/A   Mostly Cloudy
5:51 AM 30.9 °F 24.3 °F 24.1 °F 76% 30.38 in 10.0 mi SSW 6.9 mph - N/A   Mostly Cloudy
6:51 AM 30.0 °F 24.1 °F 23.0 °F 75% 30.39 in 10.0 mi SSW 5.8 mph - N/A   Mostly Cloudy
7:51 AM 30.9 °F 23.5 °F 23.0 °F 72% 30.38 in 9.0 mi South 8.1 mph - N/A   Scattered Clouds
8:51 AM 33.1 °F 26.1 °F 24.1 °F 70% 30.39 in 9.0 mi SSW 8.1 mph - N/A   Scattered Clouds
9:51 AM 37.0 °F 30.4 °F 26.1 °F 65% 30.38 in 10.0 mi SSW 9.2 mph - N/A   Mostly Cloudy
10:51 AM 39.9 °F 33.9 °F 26.1 °F 58% 30.39 in 10.0 mi SW 9.2 mph - N/A   Partly Cloudy
11:51 AM 44.1 °F 38.6 °F 27.0 °F 51% 30.35 in 10.0 mi SW 10.4 mph - N/A   Clear
12:51 PM 45.0 °F 38.2 °F 21.0 °F 39% 30.33 in 10.0 mi SSW 15.0 mph - N/A   Clear
1:51 PM 46.9 °F - 21.0 °F 36% 30.30 in 10.0 mi SW 13.8 mph - N/A   Clear
2:51 PM 46.9 °F - 19.9 °F 34% 30.27 in 10.0 mi SSW 13.8 mph - N/A   Partly Cloudy
3:51 PM 46.0 °F 41.4 °F 21.0 °F 37% 30.28 in 10.0 mi South 9.2 mph 18.4 mph N/A   Scattered Clouds
4:51 PM 43.0 °F 38.2 °F 19.9 °F 40% 30.27 in 10.0 mi South 8.1 mph - N/A   Scattered Clouds
5:51 PM 39.2 °F 35.9 °F 19.4 °F 45% 30.26 in 10.0 mi SSW 4.6 mph - N/A   Scattered Clouds
6:51 PM 39.0 °F 34.8 °F 21.0 °F 49% 30.31 in 10.0 mi South 5.8 mph - N/A   Scattered Clouds
7:51 PM 35.1 °F 30.1 °F 21.9 °F 59% 30.30 in 10.0 mi South 5.8 mph - N/A   Scattered Clouds
8:51 PM 33.1 °F 27.7 °F 21.9 °F 64% 30.31 in 10.0 mi SSE 5.8 mph - N/A   Scattered Clouds
9:51 PM 34.0 °F 27.2 °F 21.9 °F 61% 30.30 in 10.0 mi South 8.1 mph - N/A   Mostly Cloudy
10:51 PM 33.8 °F 29.6 °F 21.2 °F 60% 30.28 in 10.0 mi South 4.6 mph - N/A   Mostly Cloudy
11:51 PM 33.1 °F 27.7 °F 21.9 °F 64% 30.30 in 10.0 mi South 5.8 mph - N/A   Mostly Cloudy